Regional Weather Roundup
Issued by NWS

Home | Current Version | Previous Version | Graphics & Text | Print | Product List | Glossary On
Versions: 1 2 3 4 5 6 7 8 9 10 11 12 13 14 15 16 17 18 19 20 21 22 23 24 25 26 27
000
ASUS45 KTFX 271510
RWRMT
MONTANA REGIONAL WEATHER ROUNDUP
NATIONAL WEATHER SERVICE GREAT FALLS MT
900 AM MDT SUN MAY 27 2018

NOTE: "FAIR" INDICATES FEW OR NO CLOUDS BELOW 12000 FEET WITH NO
SIGNIFICANT WEATHER AND/OR OBSTRUCTIONS TO VISIBILITY.

MTZ001>007-043-271600-
WEST OF THE DIVIDE

CITY           SKY/WX    TMP DP  RH WIND       PRES   REMARKS
KALISPELL      FAIR      59  52  77 N5        30.10S
MISSOULA       FAIR      56  47  71 CALM      30.12S
BUTTE          FAIR      53  44  71 N3        30.14F
MULLAN PASS    FAIR      46  39  76 N7        30.17F
ANACONDA         N/A     54  45  71 CALM      30.13S
DEER LODGE       N/A     54  48  82 NE5       30.15F
HAMILTON         N/A     55  46  71 MISG      30.14S
RONAN            N/A     59  50  72 MISG      30.12S
$$

MTZ008-052>055-271600-
SOUTHWEST MONTANA

CITY           SKY/WX    TMP DP  RH WIND       PRES   REMARKS
BOZEMAN        FAIR      59  51  75 CALM      30.07S
DILLON         FAIR      55  44  66 CALM      30.09R
ENNIS          MOSUNNY   57  48  72 N15G22    30.10S
W YELLOWSTONE  FAIR      54  43  66 CALM      30.10R
$$

MTZ009-010-012-014-046-048-049-054-271600-
EAST SLOPES AND CENTRAL MONTANA

CITY           SKY/WX    TMP DP  RH WIND       PRES   REMARKS
CUT BANK       FAIR      64  44  48 NW12      30.06R
GREAT FALLS    FAIR      65  50  58 W8        30.06S
MALMSTROM AFB  FAIR      63  50  63 W8        30.05S
HELENA         FAIR      66  50  56 NW7       30.05F
AUGUSTA        FAIR      64  42  44 CALM      30.08S
BOWMANS CRNR   FAIR      60  51  72 W5        30.07S
CHOTEAU          N/A     61  50  67 CALM      30.08F
FAIRFIELD      FAIR      61  46  57 CALM      30.06S
POWER          PTSUNNY   61  47  60 W6        30.06S
RAYNESFORD     FAIR      62  52  69 CALM      30.06S
ULM            FAIR      63  51  64 NW3       30.06S
WHITE SULPHUR    N/A     57  50  77 CALM      30.08S
$$

MTZ011-013-016-021-045-047-050-051-271600-
NORTH CENTRAL MONTANA

CITY           SKY/WX    TMP DP  RH WIND       PRES   REMARKS
HAVRE          FAIR      65  50  58 SW9       29.99S
LEWISTOWN      FAIR      61  49  64 W5        30.06R
N BAR RANCH    FAIR      64  50  59 NW9       30.07R
CHINOOK          N/A     64  55  72 CALM      29.99
DENTON         FAIR      67  51  56 N8        30.00S
GEYSER         FAIR      64  49  56 CALM      30.05S
GRASS RANGE    FAIR      64  54  68 W9        29.99S
JUDITH GAP     FAIR      59  51  75 N13       30.06S
ROY            FAIR      66  55  67 NW13      30.01R
STANFORD       FAIR      63  48  59 NW7       30.06S
WINIFRED       FAIR      63  52  66 W5        30.03R
$$

MTZ017>020-022>027-061-062-271600-
NORTHEAST MONTANA

CITY           SKY/WX    TMP DP  RH WIND       PRES   REMARKS
GLASGOW        FAIR      72  57  59 N17       29.92R
GLENDIVE       FAIR      64  58  80 SE8       29.95R
JORDAN           N/A     66  58  75 N12       29.94R
MALTA          SUNNY     70  55  60 N10       29.95S
SIDNEY         FAIR      66  60  81 NE10      29.87F
WOLF POINT     FAIR      70  59  68 NE22G29   29.91R
PLENTYWOOD       N/A     64  63  94 N18       29.91S
POPLAR           N/A     68  61  77 N12       29.91R
$$

MTZ028>42-056>058-271600-
SOUTHCENTRAL AND SOUTHEAST MONTANA

CITY           SKY/WX    TMP DP  RH WIND       PRES   REMARKS
BAKER          FAIR      64  58  80 N9        29.95R
BILLINGS       PTSUNNY   59  53  80 SW8       30.01R
LIVINGSTON     FAIR      55  49  80 N3        30.06S
MILES CITY     FAIR      66  60  81 S7        29.94R
BIG TIMBER     SUNNY     55  52  88 W7        30.07S
FORSYTH          N/A     66  55  68 SW6       29.94R
HARLOWTON      FAIR      59  53  80 W6        30.06S
LAUREL           N/A     59  54  82 CALM      30.02R
$$

REGIONAL REPORTS...DAKOTAS

CITY           SKY/WX    TMP DP  RH WIND       PRES   REMARKS
WILLISTON      FAIR      69  59  70 E3        29.90S
MINOT          FAIR      69  62  78 NE10      29.85R
DICKINSON      FAIR      68  57  68 N14       29.85S
BEACH          CLOUDY    63  59  88 S6        30.02R
CROSBY         FAIR      68  66  94 S10       29.91R
TIOGA          FAIR      66  66 100 NW3       29.94R
WATFORD CITY   FAIR      64  61  88 N9        29.88F
BISMARCK       FAIR      69  60  73 E12       29.79R
GRAND FORKS    PTSUNNY   67  65  93 SE8       29.78F
FARGO          LGT RAIN  66  61  84 E20       29.76F
BUFFALO SD       N/A     69  54  58 N9        29.85S
RAPID CITY     FAIR      71  56  58 N21G30    29.87R
$$

REGIONAL REPORTS...WYOMING/IDAHO/WASHINGTON

CITY           SKY/WX    TMP DP  RH WIND       PRES   REMARKS
GILLETTE       FAIR      69  56  62 NW8       29.98R
SHERIDAN       FAIR      63  54  72 W5        29.99F
BUFFALO WY     FAIR      60  50  69 NW9       30.03S
CODY           HVY RAIN  54  49  83 W8        30.14R
YELLOWSTONE LA   N/A     44  40  85 CALM      30.19R
IDAHO FALLS    PTSUNNY   52  50  93 N10       29.95F
SALMON         FAIR      57  48  72 CALM      30.09S
BOISE          FAIR      57  47  69 NW9       30.00R
SPOKANE        PTSUNNY   53  43  68 SW7       30.14R
$$

REGIONAL REPORTS...ALBERTA

CITY           SKY/WX    TMP DP  RH WIND       PRES   REMARKS
CALGARY        MOSUNNY   57  37  47 CALM      30.09S
CARDSTON         N/A     61  43  51 NW8         N/A
EDMONTON       SUNNY     59  37  44 N5        30.05S
FORT MCMURRAY  SUNNY     59  36  41 W14       29.88R
HIGH LEVEL     MOSUNNY   55  37  50 SW3       29.80R
LETHBRIDGE     PTSUNNY   61  43  51 NW16G24   30.03R
LLOYDMINSTER   PTSUNNY   63  37  39 W9        30.02R
MILK RIVER       N/A     64  45  48 NW17        N/A
ONEFOUR          N/A     66  43  42 SW8         N/A
PEACE RIVER    PTSUNNY   55  36  47 W16G23    29.94R
PINCHER CREEK  SUNNY     61  41  48 NW8       30.08S
WATERTON GATE    N/A     61  45  55 S6          N/A
$$

REGIONAL REPORTS...SASKATCHEWAN

CITY           SKY/WX    TMP DP  RH WIND       PRES   REMARKS
CORONACH         N/A     66  55  68 N20G25      N/A
ESTEVAN        MOSUNNY   68  61  77 S10       29.89R
MOOSE JAW        N/A     68  45  42 N14         N/A
PRINCE ALBERT  PTSUNNY   59  46  63 NW13      29.95S
REGINA         PTSUNNY   68  55  64 N18       29.93R
ROCKGLEN         N/A     63  54  72 N15G23      N/A
SASKATOON      PTSUNNY   55  46  71 NW9       30.00R
SWIFT CURRENT  SUNNY     64  43  45 E15       30.01R
VAL MARIE        N/A     66  52  59 NE13        N/A
$$




USA.gov is the U.S. government's official web portal to all federal, state and local government web resources and services.